GFSSW_700_temp_000.txt.gz
Temp
10 10 11 12 12 12 13 13 13 13 13 14 14 14 14 14 14 14 14 14 14 15 15 15 16 16 16 17 17 17 18 18 18 18 16 14 14 15 14 14 14 14 14 14 14
10 10 11 12 12 12 12 12 12 13 13 13 14 14 14 14 14 14 14 14 14 14 15 15 16 16 15 17 17 17 19 18 17 17 16 15 15 13 13 14 15 15 14 14 14
9 10 11 11 12 12 12 12 12 12 12 13 13 14 14 14 14 14 14 14 14 14 15 15 15 15 16 17 17 17 18 16 16 16 15 15 14 14 14 13 14 14 14 14 13
9 10 11 11 11 11 11 11 12 12 12 13 13 14 14 14 14 14 14 14 14 14 15 15 15 15 16 17 17 17 16 16 16 15 15 15 14 15 14 14 14 14 13 13 13
9 10 11 11 11 11 11 12 12 12 13 13 14 14 14 15 15 15 14 14 14 14 15 15 15 16 17 17 17 16 15 15 15 15 15 15 15 15 13 13 13 14 13 13 13
9 10 10 11 11 11 11 12 12 13 13 14 14 15 15 14 15 15 14 14 14 14 15 15 15 16 16 17 17 16 15 15 15 15 15 14 14 14 12 12 12 13 12 12 12
9 9 10 11 11 11 11 12 12 13 13 13 14 14 14 14 15 15 14 14 14 14 14 15 15 16 17 17 16 15 15 15 15 14 15 15 14 14 13 12 12 12 12 11 11
9 9 10 10 11 11 11 12 12 13 13 12 13 14 13 14 14 14 14 14 14 14 14 14 15 16 16 17 16 16 16 16 15 14 15 15 14 15 15 13 11 11 11 11 11
9 9 10 10 11 11 11 12 12 13 12 12 12 12 12 14 14 14 14 14 14 14 14 15 15 16 16 17 17 17 18 18 16 15 15 16 14 15 15 12 11 11 11 11 11
9 9 9 10 10 11 12 12 12 13 13 12 12 12 13 13 14 14 14 14 14 14 14 15 15 16 17 17 18 18 18 18 17 16 15 16 15 15 15 12 12 11 10 11 11
9 9 9 10 10 11 11 12 12 12 13 13 12 12 13 13 13 14 14 14 14 14 15 15 16 17 17 17 18 18 18 18 17 16 16 16 14 14 15 13 12 12 14 11 11
9 9 9 9 10 10 10 12 12 12 13 13 13 13 13 12 13 13 14 13 14 15 15 15 16 17 17 17 17 17 18 18 17 16 16 15 15 13 13 13 13 12 14 13 13
9 9 10 9 10 10 10 11 12 12 13 14 13 12 13 13 13 13 14 14 14 15 15 16 17 17 16 16 17 17 18 18 17 15 16 15 15 13 13 13 14 13 12 13 13
9 9 10 9 10 10 10 11 12 12 12 14 14 13 13 13 13 13 14 14 15 15 15 17 16 16 16 17 17 18 17 17 17 15 17 15 19 15 14 13 15 14 14 13 13
9 9 9 9 9 10 10 10 11 12 16 15 14 14 13 14 14 13 14 14 15 16 15 17 16 17 17 18 17 17 17 16 16 16 17 15 17 18 15 14 13 14 13 14 13
9 9 9 9 9 10 10 10 11 12 15 14 14 13 13 14 14 14 14 14 15 16 16 17 17 17 18 17 17 17 16 15 16 17 18 18 17 18 17 15 14 13 13 14 13
9 9 10 9 9 10 10 10 11 14 14 15 14 14 15 15 15 14 14 14 16 16 17 17 17 17 17 17 17 16 17 18 18 18 19 16 17 17 17 16 15 14 13 14 14
9 9 10 10 9 9 10 10 12 14 15 14 15 15 15 15 15 15 15 15 16 17 18 18 17 17 17 17 17 17 17 19 18 19 19 15 17 17 16 16 16 15 13 12 14
8 9 10 10 9 9 10 11 13 14 13 14 14 15 16 15 16 16 16 16 16 17 18 18 18 17 17 17 17 17 17 18 18 17 18 18 17 16 16 16 16 16 15 12 13
8 9 10 10 10 9 9 11 12 12 12 13 15 15 16 16 15 16 16 17 17 16 17 17 18 17 17 17 17 17 17 17 17 18 17 18 17 18 16 15 15 15 15 12 13
8 8 9 10 10 9 10 11 11 11 12 13 14 15 16 16 16 16 17 17 16 16 17 17 17 17 16 16 17 16 17 17 18 17 19 19 19 17 16 15 15 15 15 14 14
8 7 9 9 9 9 10 11 10 11 11 12 13 14 15 16 16 17 17 17 16 16 16 16 16 17 17 16 17 17 17 17 17 17 17 16 17 16 16 15 15 14 15 14 14
8 8 8 9 9 9 9 9 10 11 12 12 13 13 14 15 16 16 16 16 16 16 16 16 16 17 17 16 16 16 16 17 17 17 17 17 18 16 15 15 15 14 14 14 14
7 7 7 8 8 9 9 10 10 11 11 12 12 13 14 14 15 16 16 15 16 16 16 16 17 17 18 17 17 16 16 16 17 17 17 17 16 16 15 14 14 14 14 14 14
7 6 7 7 6 7 8 9 9 10 11 12 12 12 13 15 15 15 16 14 15 16 16 15 16 17 17 17 17 17 17 16 16 17 17 17 16 15 14 13 13 14 14 14 14
6 6 7 7 7 7 7 7 8 8 10 10 11 12 13 13 14 15 15 15 15 15 14 15 15 16 17 16 16 17 17 16 16 16 15 15 14 14 13 12 13 13 13 13 14
5 5 6 6 6 6 6 6 8 9 9 10 11 12 11 12 13 14 14 14 14 14 14 14 15 15 17 15 15 16 16 16 16 15 15 15 14 13 13 12 12 12 12 13 13

GFSSW_700_temp_003.txt.gz
Temp
9 10 10 11 12 12 12 13 13 13 13 13 14 14 14 15 15 15 15 14 15 15 15 15 16 16 17 17 17 18 19 20 19 19 18 17 16 15 14 13 13 12 14 14 14
9 10 10 11 11 12 12 12 12 13 13 13 14 14 14 14 15 15 15 15 15 15 15 15 16 16 16 17 18 18 20 20 19 19 18 17 17 16 15 13 13 12 13 14 14
10 9 10 11 11 11 12 12 12 12 13 13 13 14 14 14 15 16 14 14 15 15 15 15 15 16 17 18 19 19 20 18 18 18 18 17 17 16 16 15 13 15 14 14 14
9 10 10 11 11 11 11 12 12 12 12 13 14 14 14 14 14 14 15 15 15 15 15 16 15 16 18 18 18 19 18 18 17 17 18 17 16 15 14 14 13 14 14 14 14
9 10 10 10 11 11 11 11 12 12 13 13 14 14 14 14 14 15 14 15 15 15 15 15 16 17 18 19 18 18 18 17 17 17 17 16 15 13 12 15 14 14 14 14 12
9 9 10 10 11 11 11 12 12 12 13 14 14 14 14 15 13 15 15 15 15 15 15 15 16 18 18 18 19 18 17 17 17 17 16 16 15 13 11 13 14 14 13 11 10
9 9 10 10 11 11 11 12 12 12 13 13 14 15 14 14 15 15 15 15 15 15 15 15 16 17 18 18 18 18 17 17 17 17 17 16 15 13 12 11 11 10 10 10 9
9 9 9 10 11 11 11 11 12 12 12 13 13 14 13 14 15 15 14 14 14 14 15 15 16 17 18 18 18 18 18 18 17 17 17 15 14 13 12 12 12 11 11 10 9
9 9 9 10 10 11 11 11 12 12 12 12 12 13 13 15 15 15 13 14 14 14 14 15 15 17 18 18 18 18 19 19 18 17 16 16 15 13 14 13 12 12 11 11 10
9 9 9 10 10 10 11 11 12 12 12 12 12 13 14 13 13 15 14 14 14 14 14 15 16 18 18 18 19 19 20 20 19 18 17 15 14 14 14 14 13 12 12 11 11
9 9 9 9 10 10 11 11 11 12 12 13 12 13 14 14 13 13 13 14 14 15 15 16 17 18 19 19 20 20 20 20 19 18 18 18 16 15 14 14 14 13 12 12 12
9 9 9 9 10 10 10 11 9 11 13 12 12 13 13 13 13 13 13 14 15 15 16 16 17 18 19 19 19 19 20 20 19 19 18 18 17 16 15 15 14 14 13 12 12
9 9 9 9 10 10 10 11 11 11 11 14 13 13 13 13 14 14 14 15 15 16 17 18 18 18 18 19 19 18 19 20 20 18 18 17 17 16 15 15 14 14 13 13 12
9 9 9 9 9 10 9 10 11 11 11 15 14 14 13 13 14 14 14 15 16 16 17 18 18 18 18 18 18 19 19 19 19 19 19 18 20 17 16 15 15 14 14 13 13
9 9 9 9 9 10 9 10 11 11 16 17 15 15 14 14 15 15 14 15 16 17 17 18 19 18 18 18 18 19 19 19 19 19 19 18 19 16 15 15 15 15 14 14 13
9 9 9 9 9 9 10 10 11 11 16 17 15 15 15 15 16 15 15 15 16 17 17 18 18 18 18 19 18 18 18 18 18 19 19 19 17 20 17 16 16 15 15 14 13
9 9 10 9 9 10 10 10 11 13 16 17 16 15 15 16 16 15 15 15 16 17 17 18 18 18 19 19 18 18 18 19 19 20 20 20 20 20 19 18 17 17 15 15 14
8 9 10 10 9 9 9 9 12 14 16 17 17 16 16 16 17 16 15 15 16 18 18 18 18 18 18 18 18 18 19 20 19 21 21 19 19 19 18 18 17 17 16 15 14
8 9 10 10 9 9 9 10 13 15 16 17 17 17 17 17 17 16 16 16 17 18 19 19 19 19 18 18 18 18 18 19 20 20 20 20 19 18 17 17 16 16 16 15 14
8 8 9 10 9 9 9 10 13 15 14 15 16 17 17 17 17 17 17 17 17 18 19 20 20 19 19 18 19 18 18 19 19 19 20 20 20 19 17 17 17 16 15 15 15
8 8 8 9 9 9 10 11 12 14 13 14 15 17 17 18 18 18 18 18 18 18 18 19 20 19 19 18 18 18 18 19 19 19 21 21 21 19 17 17 17 16 15 15 15
7 7 8 9 9 9 11 11 12 13 13 13 14 15 17 18 18 18 18 18 18 18 18 18 19 19 19 18 18 18 18 18 18 19 19 19 19 18 17 17 16 16 15 14 14
7 6 7 8 8 10 11 11 12 12 13 14 14 15 16 17 18 18 18 18 18 18 18 18 18 19 19 18 18 18 18 19 19 19 18 19 19 17 17 16 16 15 15 14 13
6 7 7 7 8 10 12 11 12 11 12 14 14 14 15 16 17 18 18 18 17 17 17 17 18 18 19 19 18 18 18 18 19 19 19 18 18 17 17 16 15 15 15 14 13
5 7 7 9 9 9 10 12 11 12 11 12 13 14 15 16 17 17 18 18 16 16 17 17 17 17 18 18 19 18 18 18 18 18 18 19 17 17 16 15 15 14 14 14 13
4 3 6 6 6 7 9 10 11 12 11 12 13 14 14 14 14 17 17 17 16 16 16 16 17 17 17 18 18 19 19 19 18 18 18 18 18 17 16 15 14 14 14 13 13
4 4 5 6 7 8 9 9 10 9 10 10 10 12 13 13 14 15 15 15 15 16 16 16 16 17 17 18 18 18 18 18 18 18 18 18 17 16 15 14 14 13 13 12 13

GFSSW_700_temp_006.txt.gz
Temp
10 10 10 11 11 12 12 12 13 13 13 14 14 14 15 15 15 15 15 15 15 15 16 17 17 17 17 17 17 17 16 19 19 19 17 17 16 16 15 14 13 13 14 14 10
10 10 10 10 11 11 12 12 12 13 13 13 14 14 15 15 15 16 15 15 15 16 16 17 17 17 17 17 19 19 18 19 19 19 18 17 17 16 15 14 14 13 13 14 12
10 10 10 10 10 11 11 12 12 12 13 13 13 14 14 15 15 16 15 15 16 16 16 16 15 17 18 19 20 20 20 20 19 19 18 17 16 15 13 14 13 15 15 15 13
10 10 10 10 10 11 11 11 12 12 12 13 13 14 14 15 14 15 16 16 16 16 16 17 16 17 18 19 20 20 19 19 19 18 18 17 16 14 14 14 13 15 15 14 14
10 10 10 10 11 11 11 11 11 12 12 13 13 14 14 15 15 14 15 16 16 16 17 16 16 17 19 20 20 19 19 19 18 18 17 16 15 13 13 13 14 14 14 14 12
10 10 10 10 10 11 11 11 11 12 12 13 13 14 14 15 14 15 15 16 16 16 17 15 17 18 19 20 19 19 19 19 18 18 17 16 15 13 12 12 13 13 13 13 10
10 10 10 10 10 11 11 11 11 12 12 13 13 14 15 15 13 14 15 16 16 16 16 16 17 18 19 20 19 19 19 19 18 18 17 16 15 13 12 11 11 11 11 10 10
10 10 10 10 10 11 11 11 11 11 12 12 13 14 15 13 13 14 15 15 15 16 15 16 17 18 19 20 19 19 19 19 18 18 17 16 15 13 13 12 12 12 12 11 10
9 10 10 10 10 10 11 11 12 12 12 12 12 13 14 13 15 15 15 15 15 15 16 17 17 17 19 19 19 19 20 19 18 18 17 16 15 14 14 13 13 13 12 11 11
9 9 10 9 10 10 11 11 12 12 12 12 12 14 14 14 15 14 14 14 15 15 16 16 16 17 19 20 20 20 19 19 19 18 17 16 16 15 15 14 13 13 12 12 11
9 9 9 9 10 10 11 11 12 12 11 12 13 14 15 14 14 14 14 15 15 15 16 16 17 18 19 19 20 21 21 19 19 18 17 16 16 16 16 15 14 13 12 12 12
9 9 9 9 10 10 10 11 10 10 11 11 12 13 14 15 14 14 14 15 15 16 16 17 17 19 20 20 20 21 21 21 20 20 19 17 16 16 16 16 15 14 13 13 12
10 10 9 9 10 10 10 11 10 10 10 14 13 14 14 15 15 14 15 15 16 16 17 17 18 19 20 20 20 20 20 21 21 20 19 19 17 14 16 16 16 15 14 13 12
10 10 9 9 9 10 10 10 9 10 11 14 14 14 14 14 15 15 15 15 16 17 17 18 19 19 19 20 20 20 20 20 21 20 20 19 19 17 16 16 16 15 14 14 13
9 10 9 10 9 10 9 9 10 10 14 18 16 16 15 15 15 16 15 16 17 17 18 18 19 19 19 20 20 20 20 20 20 20 20 20 19 18 17 17 16 16 15 15 14
8 9 9 9 10 9 9 10 10 10 15 18 17 16 15 15 15 16 15 16 17 17 18 19 19 19 19 19 19 19 19 20 20 20 20 20 20 17 16 17 16 16 16 15 14
8 8 10 9 9 9 9 10 10 12 15 17 17 17 16 16 16 16 16 16 16 17 18 18 19 20 19 19 19 20 19 20 20 20 20 21 20 19 18 17 17 16 13 16 15
8 8 9 10 9 9 9 9 11 13 14 17 18 17 17 17 16 17 16 16 16 17 18 19 19 19 19 19 20 19 19 20 19 21 22 21 20 19 19 18 17 16 16 16 15
8 8 9 10 10 9 9 8 11 13 15 17 18 18 17 17 17 18 17 17 17 18 19 19 20 20 19 20 20 19 19 20 21 21 22 21 20 20 19 18 18 18 17 17 16
8 8 9 9 10 9 8 9 12 13 15 16 17 18 18 18 18 18 17 17 17 17 18 19 20 20 20 19 20 19 19 19 20 20 20 22 21 20 19 18 17 17 17 17 16
7 8 8 9 9 9 8 10 11 13 14 15 16 17 18 18 18 19 18 18 18 18 19 20 20 20 20 19 19 20 19 20 20 20 21 21 19 18 18 18 18 17 17 16 16
7 7 7 7 8 8 9 10 12 13 14 15 15 16 16 18 19 19 18 18 18 18 19 19 20 20 20 20 20 20 20 19 19 20 19 20 20 19 18 17 17 17 16 16 15
6 8 7 7 8 9 10 10 12 13 14 15 15 15 16 17 18 19 19 19 19 19 19 19 19 20 20 20 20 19 19 19 19 19 19 20 19 18 18 17 17 16 16 16 15
6 6 8 8 8 9 11 12 12 13 14 14 15 15 16 17 17 18 19 19 19 19 19 19 19 19 20 20 20 19 19 19 20 20 20 20 18 17 18 17 16 16 15 15 15
5 6 7 8 9 9 10 11 13 13 14 13 14 14 16 16 17 18 19 19 19 19 19 19 19 19 19 19 19 20 19 19 19 19 19 19 16 17 14 15 16 15 15 15 15
3 3 5 8 7 8 10 11 11 13 13 13 13 14 15 16 16 15 16 17 19 18 18 18 18 18 18 19 19 19 20 19 19 19 19 19 19 18 16 15 15 15 14 14 14
3 3 4 7 7 8 10 11 11 12 13 12 13 13 14 13 13 14 14 15 16 18 18 17 17 17 18 18 18 19 19 20 20 19 19 19 19 17 15 15 15 14 14 13 15

GFSSW_700_temp_009.txt.gz
Temp
10 10 10 10 11 11 11 12 13 13 13 13 14 14 15 15 15 16 16 15 16 16 17 16 17 17 16 16 16 15 16 15 14 15 16 16 15 14 15 14 12 12 13 10 10
11 10 10 10 11 11 11 12 12 13 13 13 14 14 15 15 16 16 16 16 16 17 17 17 17 17 17 17 16 15 17 17 16 15 16 15 15 14 14 13 13 13 12 10 9
11 11 11 10 10 11 11 11 12 12 13 13 14 14 15 15 16 16 16 16 16 17 17 17 17 17 17 17 17 17 17 17 17 16 16 15 15 15 14 14 14 15 13 10 10
11 11 11 11 10 11 11 12 12 12 12 13 14 14 14 15 15 16 16 16 17 16 17 17 18 17 17 18 19 18 19 18 16 16 15 16 16 16 15 13 14 14 14 12 9
10 11 11 11 10 11 11 12 12 12 12 13 13 14 14 15 15 15 16 16 17 17 17 17 18 17 18 18 19 19 19 18 16 15 16 16 15 15 13 13 13 14 14 13 11
10 10 11 11 11 10 11 11 12 12 12 12 13 14 14 15 15 15 15 16 17 17 17 17 18 17 18 18 19 19 19 18 17 17 16 17 14 14 13 12 12 13 13 13 12
10 10 10 11 11 11 11 11 11 12 12 12 13 13 15 15 15 14 15 16 17 17 17 17 18 17 17 18 19 19 19 18 18 16 16 16 13 12 12 12 12 12 12 11 11
10 10 10 10 11 11 11 11 11 11 12 12 12 13 15 15 14 15 15 16 16 17 17 17 17 17 17 18 19 19 19 18 17 17 15 16 13 12 12 12 11 11 11 10 10
10 10 10 10 11 11 11 11 12 11 12 12 12 13 14 14 15 15 15 15 16 17 17 17 16 16 17 18 19 19 19 18 17 17 17 17 13 13 12 12 12 11 11 11 10
10 10 10 10 10 11 11 11 12 11 11 12 12 13 14 15 15 15 15 15 15 16 16 16 16 17 17 18 19 19 19 18 18 17 17 17 15 13 13 13 13 12 12 11 11
10 10 10 10 10 10 11 11 11 11 10 11 12 13 14 14 13 15 15 14 15 15 15 16 16 16 18 19 19 19 19 19 17 18 18 16 15 14 14 14 13 13 13 12 11
10 10 10 10 10 10 11 11 11 10 11 11 12 13 13 14 14 14 14 14 14 15 15 16 16 17 18 18 19 20 19 19 19 17 18 17 16 15 15 14 15 13 13 12 12
10 10 10 10 10 10 10 10 10 10 9 13 13 14 14 14 14 14 14 14 14 15 15 16 16 18 18 19 19 20 20 19 19 18 18 17 16 15 16 15 15 15 13 13 12
9 10 10 10 10 10 10 10 10 9 9 15 15 15 14 14 15 14 14 14 15 15 16 16 16 17 18 18 20 20 20 20 20 18 17 17 15 15 16 16 15 15 14 14 12
9 9 10 10 10 10 9 9 9 10 9 16 16 16 16 14 15 15 15 15 15 15 16 16 17 18 18 19 20 20 20 20 20 20 20 18 19 19 16 16 16 15 15 14 13
8 9 10 9 10 9 10 10 10 9 10 15 16 15 15 14 15 15 15 15 15 16 16 17 17 18 19 19 19 20 20 20 20 20 18 20 19 16 16 16 16 16 15 15 14
8 8 9 10 9 9 9 9 9 9 13 16 16 16 15 15 15 15 15 15 15 16 17 17 18 18 19 19 19 19 19 19 17 16 15 20 20 19 18 17 17 16 16 15 15
8 8 9 10 9 9 9 9 8 11 13 16 15 16 16 15 15 15 16 15 15 16 17 17 18 18 19 19 19 19 19 19 15 14 18 20 19 20 19 18 18 17 17 16 15
8 8 9 9 9 8 8 8 9 12 13 13 14 16 16 16 16 16 16 16 16 16 16 17 18 19 19 19 19 19 19 19 19 20 18 20 20 20 19 19 17 17 17 16 15
8 8 9 9 9 8 8 9 10 12 12 12 13 14 15 17 17 16 16 16 16 16 16 17 18 19 19 19 19 19 20 19 19 16 15 20 19 19 19 18 18 17 17 16 15
7 8 9 8 9 8 8 9 11 12 11 12 13 13 14 17 18 17 17 17 17 16 17 17 17 19 19 19 19 19 19 19 19 19 15 15 17 19 19 18 18 18 17 17 16
7 7 7 8 8 8 9 10 11 11 11 11 13 14 15 16 16 18 18 18 17 17 17 17 18 18 20 20 20 19 19 19 19 19 19 19 19 19 19 18 17 17 17 17 16
6 8 7 6 7 7 8 9 10 10 11 12 13 14 14 15 16 16 18 18 18 17 17 17 18 18 19 20 20 19 19 19 19 19 19 17 18 18 18 18 17 17 16 16 16
5 7 7 7 7 7 8 8 10 11 11 12 13 14 15 15 15 16 17 18 19 18 18 18 18 19 18 19 20 19 19 20 19 19 19 19 18 18 17 17 17 16 16 16 15
3 4 4 7 7 7 8 8 9 10 12 13 13 14 14 14 15 16 17 17 18 18 18 18 18 19 19 19 20 19 20 20 19 19 19 19 18 18 18 17 16 16 15 15 15
2 4 4 6 6 7 8 9 9 11 11 12 12 14 14 14 13 14 14 15 17 18 19 19 18 19 19 19 19 19 19 18 19 19 19 19 19 19 18 17 17 16 15 15 16
1 2 3 6 6 6 7 8 9 11 11 11 11 13 14 13 12 14 14 15 16 16 18 19 18 19 18 18 18 18 18 19 19 19 19 19 18 19 17 16 15 15 15 15 15

GFSSW_700_temp_015.txt.gz
Temp
11 11 11 11 10 10 10 11 11 12 13 13 13 14 14 14 14 15 15 16 16 16 16 16 15 16 16 15 16 16 16 14 14 14 14 13 14 13 13 15 12 12 13 13 12
10 11 11 11 11 11 10 10 11 11 12 13 13 13 14 14 15 15 15 15 16 16 16 16 16 16 16 16 16 16 16 15 14 14 15 14 14 15 14 15 14 14 12 13 12
10 10 11 11 11 11 11 10 11 11 11 12 12 13 14 14 15 16 16 16 16 17 16 16 16 16 16 16 17 16 16 15 15 15 15 15 14 15 15 15 14 15 14 13 13
10 10 10 11 11 11 11 11 11 11 11 12 12 13 13 14 14 15 16 16 16 17 16 16 16 16 16 16 16 16 16 15 15 15 15 15 14 15 14 14 14 14 14 13 13
10 10 10 11 11 11 11 11 11 11 11 12 12 12 13 14 15 14 16 16 16 17 17 17 16 16 16 16 16 16 16 15 15 15 15 14 14 14 14 14 13 14 14 14 14
11 11 11 10 11 11 11 11 11 11 11 11 12 12 13 14 15 15 15 16 16 17 17 17 17 16 16 16 16 17 16 15 15 14 14 14 13 13 13 13 14 14 14 14 14
11 11 11 11 11 11 11 11 12 11 11 11 12 12 13 14 14 14 15 16 16 17 17 17 16 16 16 16 16 16 15 15 14 14 14 14 14 13 13 13 13 13 13 14 14
10 11 11 11 11 11 11 11 11 11 11 11 11 12 14 13 14 14 15 16 16 16 16 16 16 16 17 16 16 15 14 14 14 15 15 15 15 13 13 13 13 13 13 14 14
10 11 11 11 11 11 11 10 11 11 11 11 12 12 14 14 15 14 15 16 16 16 16 16 16 16 16 16 15 15 13 14 14 15 16 15 15 14 12 12 12 13 13 13 13
10 10 11 11 11 12 11 10 10 11 11 11 12 13 13 12 13 12 13 15 16 15 16 16 16 16 16 15 15 14 14 14 17 16 15 15 16 16 14 12 13 12 12 12 12
9 10 10 10 11 11 11 10 10 10 11 12 12 13 13 12 13 12 12 14 15 15 15 16 16 16 17 16 16 15 14 15 17 16 16 15 16 17 16 15 14 13 13 12 12
9 9 10 10 10 11 11 10 10 10 13 11 12 12 14 12 12 12 12 12 14 15 15 15 16 17 17 17 16 16 16 15 15 16 15 16 16 16 16 16 16 15 15 14 13
9 9 10 10 10 10 10 9 9 9 10 14 14 13 14 13 13 13 12 12 13 14 14 15 17 17 16 17 17 16 16 16 16 15 15 15 15 15 15 15 15 14 14 14 15
9 9 9 10 10 10 10 9 9 9 9 14 14 14 15 13 12 13 12 12 12 13 14 14 17 16 16 17 17 16 17 17 16 15 14 15 14 15 15 15 15 15 15 14 14
8 9 9 9 10 9 10 9 9 8 6 13 13 13 14 14 14 13 12 12 12 12 14 14 16 16 16 17 17 18 18 17 17 16 15 14 15 17 16 15 16 16 16 15 14
8 8 9 8 10 8 9 9 8 8 7 13 12 12 13 14 13 14 13 12 13 13 13 14 15 16 17 18 17 18 17 17 17 16 13 17 15 16 17 18 18 17 16 16 15
8 8 8 9 9 8 9 8 8 8 10 13 12 12 12 12 13 13 13 13 12 12 13 14 14 15 16 17 17 17 16 16 13 12 11 16 14 17 18 18 19 19 19 18 16
7 8 8 9 8 8 8 8 7 9 11 13 13 13 12 13 13 13 13 13 13 13 13 14 14 15 16 16 16 17 16 15 12 9 13 16 14 17 18 18 18 19 18 17 17
7 7 8 8 8 8 8 7 7 9 10 10 11 12 13 13 13 13 13 13 13 13 14 14 14 15 16 16 16 16 16 17 17 15 14 16 17 18 18 19 19 18 18 17 17
7 8 7 8 8 8 7 7 8 9 9 10 10 11 11 12 12 12 12 13 14 14 14 14 15 15 15 16 16 16 17 17 16 12 13 15 18 19 19 20 19 18 18 18 17
6 7 7 7 8 7 7 8 8 8 8 9 9 10 11 11 11 11 11 13 13 14 14 14 14 15 15 16 16 16 17 17 17 17 10 11 16 19 19 19 19 20 19 18 18
4 5 6 6 6 6 7 8 8 8 8 8 9 9 9 10 10 10 11 12 14 13 14 14 14 14 15 16 16 17 17 17 17 16 17 17 17 19 19 19 19 19 19 18 17
3 4 5 5 5 5 6 7 7 7 7 8 8 9 9 9 9 10 11 13 13 13 13 14 14 14 15 15 16 16 17 17 17 18 18 15 17 19 19 19 19 19 18 17 17
2 3 2 4 3 4 4 5 6 6 6 6 7 7 8 9 9 10 11 13 14 15 15 15 15 15 14 15 16 16 17 17 18 18 18 18 19 19 19 19 18 18 18 17 17
0 1 2 2 1 2 3 4 5 5 5 6 7 8 8 9 9 11 11 11 13 14 15 14 14 15 16 16 16 17 17 17 18 18 19 19 19 19 19 18 18 18 17 17 18
-1 -1 1 1 2 2 3 3 4 5 6 7 8 9 9 9 10 11 11 11 13 14 14 15 15 15 16 16 16 16 17 17 17 18 19 19 19 19 19 18 18 18 17 17 17
-2 -2 -1 -0 1 2 2 3 4 4 6 7 7 9 9 9 10 11 10 12 12 12 13 14 15 15 15 16 16 16 17 17 18 17 18 18 18 18 18 18 18 18 17 17 17

GFSSW_700_temp_021.txt.gz
Temp
10 10 10 11 11 10 11 11 11 11 11 11 12 12 13 13 13 13 14 15 14 15 15 15 15 15 14 14 14 14 15 15 15 14 14 14 14 13 13 12 12 11 11 12 12
10 10 10 10 11 11 11 11 11 11 11 11 11 12 12 13 13 14 14 14 14 14 15 15 15 15 15 14 14 15 15 15 15 15 15 14 14 14 14 13 12 12 12 12 12
10 10 10 10 10 10 11 11 11 11 11 11 11 11 12 12 13 14 14 14 14 14 15 15 15 15 15 14 14 15 15 15 15 15 14 14 14 14 14 13 13 13 13 13 13
10 10 10 10 11 11 11 11 11 11 11 11 11 11 12 12 13 13 14 14 15 15 15 16 16 15 15 15 15 15 16 16 15 15 14 14 14 14 13 13 13 13 12 13 13
10 10 11 11 11 11 11 11 11 12 12 12 12 12 12 13 13 12 14 14 15 15 16 16 16 16 16 15 15 15 15 16 15 15 14 14 14 14 13 13 14 14 13 12 13
10 10 11 11 11 11 11 11 11 12 12 12 12 12 12 13 12 13 14 14 15 15 16 16 16 16 16 16 15 15 16 16 16 15 15 14 14 13 13 13 14 14 14 13 12
10 10 11 11 11 11 11 11 12 12 12 12 12 12 13 13 12 13 13 14 14 15 16 16 16 16 16 16 16 16 16 16 16 16 15 14 13 13 13 13 13 14 14 13 13
9 10 10 10 11 11 11 11 11 12 12 12 12 13 13 13 12 13 13 14 14 15 15 15 16 16 15 16 16 16 16 16 16 16 15 14 14 13 13 13 13 13 14 14 14
10 10 10 10 10 10 11 11 11 12 12 12 12 13 13 13 13 13 13 13 14 14 14 14 14 15 15 15 16 16 15 16 16 15 14 14 13 14 13 13 13 13 14 14 13
10 10 10 10 10 10 10 11 11 11 12 12 12 13 13 12 12 13 13 12 13 14 14 14 14 14 15 15 16 15 15 16 16 16 14 13 14 14 14 13 13 13 13 13 13
10 10 10 9 10 10 10 10 11 11 12 12 12 12 12 12 12 12 12 12 12 12 13 13 14 14 15 15 16 17 16 16 16 15 15 14 13 14 13 14 13 13 13 13 13
9 10 10 9 10 10 10 10 10 10 11 12 12 13 13 12 12 11 12 11 12 12 12 13 13 15 15 15 16 16 16 16 15 14 14 14 14 14 14 15 15 14 13 13 13
9 9 10 9 9 9 9 10 10 10 10 13 13 13 13 13 13 12 11 11 11 12 12 12 13 14 15 15 16 16 16 15 16 14 14 14 14 14 15 14 15 15 15 14 13
9 9 10 9 9 8 9 9 9 9 10 12 12 12 12 12 13 13 11 11 11 11 12 12 13 14 14 15 15 15 16 16 15 14 15 13 15 15 16 15 15 16 16 16 15
8 8 9 9 9 8 8 8 8 8 9 12 11 11 12 13 13 13 12 11 10 11 11 12 13 13 14 15 15 15 16 16 15 15 14 13 13 16 15 16 17 17 16 16 16
7 7 8 9 8 8 7 8 8 7 8 11 11 11 12 12 12 12 12 11 11 10 11 11 13 13 14 15 15 15 16 15 14 14 13 14 14 16 16 18 18 17 17 16 16
6 6 7 8 8 7 7 7 6 7 10 11 11 11 11 12 11 11 12 11 11 10 11 11 12 13 13 14 14 14 15 14 14 13 16 15 13 15 17 18 18 18 17 17 17
5 5 6 7 8 7 6 6 6 8 9 11 10 11 10 11 12 11 11 11 11 11 11 11 12 12 13 14 14 14 15 16 15 15 16 15 14 15 18 18 18 18 18 17 17
5 5 5 6 6 7 6 5 7 7 9 10 11 10 10 11 11 11 11 11 12 11 12 11 12 13 13 13 14 13 14 16 15 13 16 16 15 17 18 18 18 19 18 18 18
4 4 4 5 6 6 5 6 6 7 8 9 9 9 10 10 10 10 11 11 12 12 12 12 12 13 14 13 14 14 14 14 15 16 15 15 14 17 18 18 19 19 19 19 19
2 3 4 4 4 5 5 5 6 6 7 8 8 8 9 10 10 10 11 12 12 12 12 12 12 13 13 13 14 13 14 14 15 15 17 17 17 17 18 18 18 18 18 19 19
1 1 2 3 3 3 4 5 5 6 7 7 7 7 8 8 9 8 9 11 12 12 12 12 12 12 13 13 14 14 14 15 16 14 14 16 17 18 18 18 18 19 18 19 19
-0 0 1 1 2 2 3 3 4 5 5 6 7 6 7 8 8 8 8 11 11 11 12 12 11 12 12 12 13 13 13 14 14 15 15 16 17 17 18 18 18 19 19 19 19
-2 -2 -1 -0 0 1 1 2 3 3 4 5 6 6 7 7 7 8 8 10 11 11 11 11 11 12 13 13 13 13 12 13 13 14 15 15 16 16 17 18 18 19 19 19 19
-4 -3 -2 -2 -2 -2 -1 -1 1 2 3 4 5 5 6 6 7 7 7 9 10 10 10 10 11 12 13 13 13 13 13 13 13 14 15 16 15 16 17 18 18 19 19 19 19
-4 -4 -3 -3 -2 -2 -2 -1 -0 1 2 3 4 5 5 5 6 7 7 9 9 11 10 10 11 12 13 14 13 13 14 14 14 14 14 15 16 17 17 18 18 19 18 18 19
-6 -5 -5 -3 -3 -2 -2 -2 -1 0 1 2 3 4 5 5 6 7 7 8 8 8 10 10 11 11 12 13 12 12 13 14 14 14 15 15 16 17 17 18 18 19 18 18 18

GFSSW_700_temp_024.txt.gz
Temp
10 11 11 11 11 11 11 11 11 11 11 11 12 12 12 12 13 14 14 14 14 14 15 15 15 15 15 14 14 15 16 17 16 16 14 12 12 11 11 12 12 12 11 12 12
11 10 11 11 11 11 11 11 11 12 12 11 12 12 12 12 13 13 14 14 14 14 15 15 15 15 15 15 14 14 16 17 16 16 14 13 13 12 11 12 12 12 11 12 12
11 11 11 11 11 11 11 11 12 12 12 12 12 12 12 12 13 13 13 14 14 14 15 15 15 15 15 14 14 15 16 16 15 15 14 13 13 13 12 11 11 12 12 12 12
11 11 11 11 11 11 11 11 11 12 12 12 12 12 12 12 12 13 13 14 14 14 14 15 15 15 14 15 15 15 15 16 15 15 15 14 13 13 13 12 12 13 13 12 12
10 11 11 11 11 11 11 11 11 11 12 12 12 12 12 12 13 12 13 13 14 14 14 15 15 16 15 16 15 15 16 15 15 14 14 14 13 13 14 14 14 14 13 12 12
10 10 10 11 11 11 11 12 12 12 12 12 12 12 12 13 12 12 13 13 13 14 14 15 15 15 15 16 16 16 15 15 15 15 14 14 13 14 13 14 14 14 13 13 12
10 11 10 10 11 11 11 11 12 12 12 12 12 12 13 12 13 13 13 13 13 14 14 15 15 14 15 15 15 15 15 15 15 15 14 14 13 13 13 14 13 14 14 13 13
10 10 11 11 11 11 11 11 11 12 12 12 12 12 13 13 13 13 13 13 14 14 14 14 14 15 15 16 15 16 16 17 15 14 14 14 16 13 13 13 13 13 14 14 14
11 11 10 10 11 11 11 11 11 11 12 12 12 12 12 13 13 13 13 13 13 14 14 14 14 14 14 15 16 16 18 18 15 14 15 14 16 14 13 13 13 13 14 14 14
11 11 11 11 11 11 11 11 11 11 11 12 12 12 12 12 13 13 13 13 13 13 14 14 13 14 15 16 17 18 17 18 17 15 14 14 15 13 12 12 12 13 13 14 14
10 11 10 11 11 11 11 11 11 11 11 12 12 13 12 12 12 12 12 13 12 12 13 12 13 14 16 16 17 18 18 18 18 16 15 15 15 15 13 12 13 12 12 13 14
10 11 10 10 10 10 10 10 10 10 12 12 12 13 12 12 11 12 12 12 11 12 13 13 13 15 16 16 17 18 18 18 18 15 15 16 15 15 14 13 12 12 12 12 13
8 10 11 10 10 10 10 10 10 10 10 14 13 13 13 13 13 11 12 11 12 13 13 14 15 15 15 16 16 17 18 18 18 16 15 16 16 16 15 14 13 13 12 12 12
8 9 10 9 9 9 9 9 9 9 10 12 13 13 13 13 13 12 11 11 12 13 13 14 15 14 14 15 16 17 17 18 18 17 17 16 19 18 17 15 14 15 14 13 13
7 7 9 9 9 8 9 9 8 8 13 12 11 11 11 12 12 12 11 11 12 13 13 14 14 13 14 15 16 17 18 17 18 17 17 17 17 18 18 17 16 16 16 15 13
7 7 7 8 8 8 8 7 8 8 12 12 11 11 12 12 12 12 11 11 12 12 12 14 13 14 14 15 16 16 16 16 17 17 18 18 17 18 18 17 17 16 15 16 16
6 6 6 7 7 7 7 6 7 10 11 12 11 11 12 12 11 11 11 11 12 12 13 13 13 13 14 15 15 15 16 17 18 18 19 19 18 18 19 18 18 18 16 15 15
5 5 5 5 6 6 6 5 7 10 11 12 11 11 12 12 12 11 11 11 12 13 14 13 14 13 14 15 16 16 16 18 17 19 19 18 18 18 17 17 18 18 17 16 17
3 4 4 4 5 6 5 5 8 9 10 11 11 11 12 12 12 12 12 12 13 13 14 14 14 14 14 14 15 16 16 17 18 18 19 19 18 17 17 17 17 18 18 18 18
2 3 3 4 4 5 4 5 7 8 8 9 11 12 13 13 12 12 13 13 13 13 13 14 14 14 14 14 15 16 16 17 18 19 18 19 19 19 18 18 18 18 18 18 18
0 1 2 2 3 3 2 5 6 6 7 8 10 12 12 12 12 13 13 13 12 13 13 13 13 15 14 14 15 15 16 16 17 18 20 19 19 18 18 18 18 19 19 19 18
-2 -2 -1 0 1 1 2 4 4 5 6 7 8 10 10 11 11 11 12 12 12 13 13 13 13 14 14 15 15 16 15 16 17 17 18 18 19 19 18 18 18 18 19 19 18
-3 -2 -2 -1 -1 1 1 2 2 3 5 6 7 7 9 9 10 10 11 11 11 11 13 13 13 14 14 14 14 15 15 16 16 17 18 18 18 18 17 18 18 18 18 18 19
-4 -4 -3 -2 -2 -2 -1 0 1 2 3 5 6 7 8 8 9 9 10 10 10 10 11 12 13 13 15 15 15 14 15 16 16 17 17 18 18 18 18 17 17 18 18 18 19
-5 -5 -4 -3 -2 -3 -3 -2 -1 1 2 4 5 6 7 8 8 9 9 10 9 10 11 11 12 13 13 15 15 15 15 15 15 16 16 17 17 17 17 17 17 18 18 18 19
-7 -7 -6 -5 -3 -3 -3 -2 -1 0 1 2 4 6 6 7 8 9 9 9 9 10 10 10 11 12 13 14 14 15 15 15 15 15 15 16 16 17 17 16 17 17 18 18 19
-7 -7 -7 -6 -4 -4 -3 -2 -2 -2 -1 0 1 1 3 5 6 7 8 8 9 9 10 10 11 11 13 13 14 14 15 15 15 15 15 15 16 16 16 16 16 17 17 18 18

GFSSW_700_temp_027.txt.gz
Temp
11 11 11 11 11 11 11 11 11 11 12 11 12 12 12 13 13 14 14 13 14 14 15 15 15 15 15 13 14 15 15 17 19 18 16 15 15 14 14 12 12 12 11 10 9
11 11 11 11 11 11 11 11 11 12 12 12 12 12 12 12 13 14 13 14 14 14 15 15 15 15 14 14 15 15 15 18 18 18 16 15 15 14 13 12 12 12 11 11 11
11 11 11 11 11 11 12 12 12 12 12 12 12 12 12 12 13 12 14 14 14 14 14 15 14 15 14 15 16 17 15 18 18 18 17 15 15 14 14 13 12 12 10 12 12
11 11 11 11 11 11 11 12 12 12 12 12 12 12 12 12 13 11 13 14 14 14 14 15 14 14 15 16 17 17 17 18 17 17 17 16 15 15 14 14 13 12 11 12 12
11 11 11 11 11 11 11 12 12 12 12 12 12 12 12 12 13 11 12 13 14 14 14 14 14 15 15 17 17 17 17 17 17 17 17 16 15 15 14 14 13 12 12 12 10
11 11 11 11 11 11 11 12 12 12 12 12 12 12 12 13 12 11 12 13 13 14 14 14 14 15 16 17 18 18 18 18 17 17 17 16 16 15 14 14 13 12 13 12 11
11 11 11 11 11 11 11 12 12 12 12 12 12 12 13 13 11 12 13 13 12 14 14 15 14 15 16 17 17 18 17 17 17 17 17 16 16 15 14 14 13 12 11 11 11
11 11 11 11 11 12 12 12 12 12 12 12 12 12 13 12 13 13 13 13 13 14 12 13 13 15 16 17 17 17 18 18 18 17 17 16 17 15 14 14 13 12 12 11 11
11 11 11 11 11 11 12 12 12 12 12 12 12 12 13 14 13 13 13 13 12 14 14 13 13 14 15 16 18 18 19 19 18 17 17 16 13 16 14 14 14 13 12 12 11
11 12 12 12 12 12 11 12 12 12 12 12 12 12 13 13 12 11 11 11 12 12 12 13 14 14 15 16 18 19 19 20 19 18 17 17 17 16 15 14 14 13 13 12 11
10 11 11 11 12 12 11 11 11 11 12 13 11 12 12 12 12 13 12 11 12 12 13 14 14 15 16 17 18 19 20 19 20 18 17 17 18 17 16 15 15 14 13 13 12
10 11 10 10 11 11 11 11 11 11 13 13 13 13 12 12 12 12 12 12 12 13 14 14 15 16 17 17 18 19 20 20 20 19 18 18 18 18 17 15 15 15 14 13 13
9 10 10 9 10 10 10 10 10 10 11 15 15 14 14 11 12 13 12 12 13 14 15 16 16 16 17 17 18 19 20 21 21 19 18 19 18 18 18 17 15 15 15 14 13
9 9 10 9 9 9 10 10 9 9 10 13 14 13 13 11 12 13 13 13 14 14 15 16 17 16 17 17 18 19 19 20 20 18 19 18 20 19 18 18 17 16 15 15 14
8 8 9 9 8 8 9 9 9 9 13 14 12 12 12 12 14 14 13 13 14 14 15 16 17 17 17 17 18 18 19 19 20 20 19 20 19 21 19 19 18 17 16 16 15
8 8 8 8 9 7 8 8 8 8 13 14 13 12 12 12 14 14 13 13 13 14 15 16 16 17 17 17 18 18 19 19 19 20 20 20 18 21 17 20 19 18 17 16 16
5 6 6 7 7 7 6 6 7 10 14 15 14 13 13 13 13 13 13 13 13 14 15 15 16 16 17 16 17 17 18 19 20 21 21 19 20 17 21 20 19 19 19 17 16
3 4 4 5 6 6 5 4 7 12 12 15 14 14 14 15 14 14 13 14 14 15 16 16 16 16 16 16 17 17 18 19 19 21 22 21 21 21 21 20 19 18 19 19 17
1 2 3 3 4 4 4 4 8 10 13 13 14 15 15 15 16 15 14 14 14 14 15 17 16 16 16 16 16 18 18 19 20 20 21 21 21 20 19 19 19 19 19 19 18
0 1 1 1 3 3 2 3 8 9 12 12 13 14 15 15 15 15 15 15 15 15 15 16 17 17 17 16 16 17 18 18 19 20 21 22 21 21 20 19 19 19 19 19 19
-2 -2 -1 0 0 1 1 4 5 7 8 10 11 13 14 15 15 15 15 16 15 15 15 15 16 17 17 16 16 16 17 18 19 19 22 22 22 21 20 19 19 19 19 20 19
-2 -3 -2 -2 -2 -0 1 2 4 6 8 8 9 11 12 14 15 15 15 15 16 15 15 15 15 16 17 17 16 17 17 18 19 19 19 20 22 21 21 20 19 20 20 20 20
-4 -4 -2 -3 -1 0 1 3 4 5 6 7 8 9 10 12 13 14 15 15 14 14 15 15 15 16 16 16 17 16 17 18 18 19 19 21 20 20 20 20 19 19 19 19 19
-5 -4 -1 -2 -2 -1 1 2 3 4 5 5 6 8 9 10 11 12 13 14 13 13 14 14 15 15 17 16 17 17 16 17 18 19 19 19 19 20 20 19 19 19 19 19 19
-6 -5 -4 -3 -1 -3 -3 -1 -1 -0 1 4 5 6 8 9 10 10 11 12 13 13 12 13 14 15 15 16 17 17 17 17 17 18 18 19 19 19 19 19 19 19 18 18 19
-7 -7 -6 -5 -4 -4 -4 -2 -1 0 -1 -0 3 5 7 8 9 10 11 11 12 12 12 12 13 14 15 15 16 17 17 17 17 17 18 18 19 19 19 19 19 18 18 18 18
-7 -7 -7 -6 -5 -5 -4 -3 -1 -1 -1 -1 -2 -1 2 4 6 7 9 11 11 12 12 12 13 13 14 15 15 16 17 17 17 17 17 17 18 18 18 18 18 18 18 18 18

GFSSW_700_temp_030.txt.gz
Temp
11 11 11 11 11 12 12 11 12 12 11 11 11 12 12 12 13 14 14 14 15 14 15 15 15 15 15 13 14 14 12 17 18 18 17 16 16 15 13 14 12 12 11 10 9
11 11 11 11 12 12 12 12 12 12 12 12 12 12 12 12 13 14 13 14 14 15 15 15 16 15 15 14 15 14 13 15 14 17 17 17 16 15 14 14 13 12 11 10 10
11 11 11 11 12 12 12 12 12 12 12 12 12 12 12 12 13 14 14 14 14 14 15 15 14 14 14 15 16 13 14 15 17 18 17 17 16 15 14 14 14 12 11 10 10
11 11 11 11 12 12 12 12 12 12 12 12 12 12 12 12 12 12 13 13 14 14 14 15 13 14 15 16 16 15 13 16 18 18 18 17 16 16 15 15 14 12 10 10 10
11 11 11 11 12 12 12 12 12 12 12 12 12 12 12 12 13 11 13 13 14 14 15 15 14 15 15 16 17 16 16 17 18 18 18 17 17 16 16 15 14 12 10 10 10
11 11 11 12 12 12 12 12 12 12 12 12 12 12 12 13 13 12 12 13 14 14 14 15 14 15 16 17 18 19 18 18 19 18 18 18 17 16 15 15 14 12 11 10 10
12 12 12 12 12 12 12 12 12 12 12 12 12 12 13 14 13 12 12 14 13 14 14 15 13 15 15 17 17 18 18 19 19 18 18 18 16 16 15 15 14 12 11 11 11
12 12 12 12 13 13 13 13 12 12 12 12 12 12 14 13 13 13 11 11 12 12 14 13 14 14 15 16 17 18 19 19 19 19 18 18 17 16 15 15 14 13 12 11 11
11 11 12 12 13 13 13 13 13 13 12 12 12 12 14 14 14 14 12 12 12 12 12 13 14 14 15 16 17 18 19 20 19 19 19 17 15 16 15 15 14 13 12 12 11
11 11 11 12 12 13 13 13 13 13 13 13 12 12 14 14 14 14 14 12 12 12 13 13 14 15 15 16 17 19 19 20 19 19 19 18 16 14 15 15 15 14 13 12 12
11 11 11 11 12 12 12 12 13 13 13 13 12 12 13 14 13 13 12 12 12 13 13 14 14 15 16 16 17 19 20 20 19 18 19 18 16 14 15 16 15 15 14 13 13
11 12 11 10 11 11 11 12 12 11 14 14 14 14 14 13 13 13 13 13 13 14 14 14 14 16 16 17 17 18 20 21 20 18 18 19 18 17 16 16 16 15 14 14 13
10 10 11 10 10 11 10 11 11 11 11 16 16 16 16 14 13 14 13 13 13 14 14 15 16 16 17 17 17 18 19 20 20 19 19 20 19 19 18 17 16 16 16 15 14
10 9 10 10 9 9 9 11 10 10 9 14 15 17 15 12 13 13 14 13 14 15 15 15 16 17 17 17 18 19 19 20 20 19 19 19 20 19 19 18 17 17 16 16 15
8 9 9 9 9 9 9 10 9 9 11 16 15 14 14 14 16 15 14 14 14 15 15 16 16 17 17 17 18 19 19 20 20 20 19 18 18 19 19 19 18 17 17 16 16
6 7 7 7 8 7 7 8 7 7 11 16 15 15 14 14 14 16 14 14 14 15 16 16 17 17 18 18 18 19 19 20 20 20 21 19 18 18 19 19 19 18 18 17 17
5 4 4 6 6 6 7 7 6 9 14 16 16 14 15 15 14 16 14 14 14 14 15 16 17 18 18 18 18 18 19 20 20 21 21 20 18 18 20 19 19 18 18 18 17
3 3 3 3 5 3 4 4 6 11 11 17 17 16 15 15 15 15 15 14 15 15 16 16 17 17 18 18 18 18 19 20 19 21 22 21 22 19 20 19 19 16 16 18 18
2 2 2 3 3 3 3 2 7 9 13 14 15 16 16 15 16 16 16 15 15 15 16 17 17 18 18 18 18 19 19 19 20 20 21 22 22 22 21 20 18 17 19 18 18
0 0 1 1 0 2 0 1 5 7 10 12 13 15 16 17 16 17 16 16 16 16 16 17 18 18 18 18 18 18 18 19 19 19 20 22 22 22 21 20 18 18 19 19 19
-2 -2 1 -1 -1 -1 0 2 3 6 6 6 8 10 13 16 17 17 17 17 16 16 16 16 17 18 18 18 18 17 17 18 19 20 21 21 22 22 21 20 20 19 19 19 20
-3 -4 -1 -2 -1 -1 0 1 2 3 4 6 8 8 10 12 15 16 17 17 17 17 17 16 16 17 18 18 18 18 17 17 18 19 20 20 22 22 22 21 20 20 20 20 19
-4 -4 -1 -2 -1 -0 1 1 2 3 4 5 6 8 10 10 11 13 15 17 17 17 17 17 16 17 17 18 18 18 18 18 18 18 20 20 20 21 20 19 19 20 19 19 20
-6 -5 -2 -1 -1 -0 -0 -0 1 3 4 5 5 6 8 9 10 11 13 14 16 17 17 16 17 16 18 17 18 18 18 18 18 19 19 20 20 20 20 20 20 19 19 20 19
-7 -6 -4 -4 -3 -3 -3 -4 -3 -0 2 2 3 4 4 6 9 10 11 12 14 16 15 15 15 16 16 17 18 18 18 18 18 18 19 19 20 19 20 20 20 19 19 19 19
-8 -7 -7 -6 -5 -4 -4 -3 -4 -3 -3 -1 -0 0 1 2 2 4 7 11 13 15 14 14 14 14 15 17 17 17 18 18 18 18 18 18 19 19 20 20 19 18 19 19 19
-7 -7 -7 -7 -6 -4 -3 -2 -4 -4 -3 -2 -3 -2 -1 -2 0 2 3 7 8 12 14 13 14 14 14 15 16 17 17 18 18 18 18 18 18 19 19 19 19 19 19 19 19

GFSSW_700_temp_033.txt.gz
Temp
11 11 11 11 12 12 11 11 11 11 11 12 12 12 12 12 13 13 14 15 15 15 15 15 15 14 14 13 12 10 10 13 15 17 16 16 15 14 13 13 12 11 12 12 10
11 11 11 11 12 12 12 12 12 12 12 11 12 12 12 12 12 14 14 14 15 15 15 15 15 15 15 13 13 13 12 11 15 16 16 16 15 14 13 12 12 11 10 11 10
11 11 11 11 11 12 12 12 12 12 12 12 12 12 12 12 13 14 14 15 15 15 16 15 15 15 14 14 14 13 14 15 15 16 16 16 15 14 14 13 12 12 11 11 9
11 11 11 12 12 12 12 12 12 12 12 12 12 12 12 12 12 14 13 14 14 15 15 16 15 15 14 14 14 15 16 16 16 16 16 16 16 15 14 13 13 12 12 11 10
11 11 11 12 12 12 12 12 12 12 12 12 12 12 12 13 14 13 13 13 13 14 15 16 16 15 14 15 15 15 17 17 17 16 16 16 16 15 15 14 13 12 11 10 10
11 12 12 12 12 12 12 12 12 12 12 12 12 12 13 14 13 13 13 14 14 14 15 15 16 15 14 15 15 16 16 17 18 18 16 16 16 16 14 14 13 13 12 10 10
11 12 12 13 13 13 13 13 13 13 12 12 12 12 14 15 13 13 13 13 13 14 14 15 15 14 14 15 16 16 16 17 18 18 17 15 16 15 15 14 14 13 13 12 10
12 12 12 12 13 13 13 13 13 13 13 13 13 13 16 14 13 13 13 15 13 13 14 14 14 14 14 15 16 16 17 17 18 19 17 17 16 16 15 14 14 14 13 12 11
11 11 12 12 13 13 13 13 13 13 13 13 13 14 17 15 15 14 14 14 13 13 13 13 13 14 14 15 15 16 17 18 18 17 18 18 16 15 15 14 14 13 13 11 11
11 11 12 12 12 13 13 13 13 13 13 13 13 14 15 14 15 15 14 13 12 12 12 12 13 13 14 14 15 16 17 18 18 18 18 18 17 16 15 15 15 14 13 12 11
12 12 12 12 12 12 12 12 12 13 13 14 13 15 15 14 13 13 13 12 12 12 12 12 13 13 14 14 15 16 17 18 19 18 18 18 18 17 16 15 14 14 14 12 12
12 12 12 12 12 12 12 11 11 11 14 14 15 15 15 14 13 13 13 13 12 12 12 13 13 13 14 15 15 16 17 17 18 19 18 17 16 16 17 16 15 14 14 13 13
10 11 11 11 11 11 10 11 12 11 11 17 16 16 17 13 15 13 13 12 13 12 13 13 13 13 14 15 15 16 16 17 18 17 17 17 17 15 17 17 15 15 15 15 14
9 9 10 10 10 10 9 11 11 9 9 15 17 17 17 14 14 14 13 14 12 13 13 14 14 14 15 15 16 16 17 17 17 17 15 17 15 15 17 16 16 15 15 15 15
8 8 8 9 9 8 7 9 8 8 6 15 16 15 17 16 16 15 14 13 13 13 13 14 14 15 15 16 16 16 17 17 18 19 17 18 15 19 18 16 16 16 16 16 16
9 8 7 6 8 6 7 8 8 7 7 16 15 16 16 16 16 15 15 14 13 13 14 14 15 15 16 16 16 17 17 17 18 19 15 18 15 17 18 16 16 16 17 16 16
9 8 5 6 5 6 5 6 6 6 12 14 15 15 15 16 16 14 14 14 14 14 14 14 15 16 16 16 17 17 17 17 16 17 15 18 17 18 19 19 17 18 17 17 16
6 6 6 2 4 3 4 4 4 8 11 16 14 15 15 15 15 15 14 14 14 14 14 14 15 16 16 17 17 18 18 17 13 15 17 20 17 18 19 20 19 18 18 17 17
3 4 4 2 2 3 2 2 5 6 10 10 12 13 15 15 15 15 15 14 15 14 14 15 15 16 16 17 17 18 18 18 18 19 18 19 20 20 20 19 19 19 18 18 18
0 1 3 1 0 2 0 1 3 7 7 7 4 8 9 12 12 15 15 15 15 15 14 15 16 16 16 17 17 18 18 18 18 15 15 18 20 20 21 19 19 19 18 18 18
-2 -2 1 0 -1 -1 -2 -1 1 3 5 4 4 5 6 7 7 10 12 15 16 15 15 15 15 16 17 17 17 18 18 18 18 18 15 15 18 20 21 20 19 19 19 19 18
-3 -3 -0 -1 -1 -1 -1 -1 -0 0 2 3 3 3 4 5 6 8 9 12 16 16 16 15 15 15 16 17 18 18 18 18 17 17 18 18 18 20 20 20 20 21 19 19 19
-4 -3 -1 -2 -3 -2 -1 -1 0 1 1 2 2 3 4 5 5 7 8 13 13 13 16 16 16 15 16 16 17 18 18 18 18 17 17 15 17 19 19 19 19 19 19 19 19
-7 -5 -3 -3 -3 -3 -2 -2 -2 -1 -0 0 0 2 3 4 5 6 6 9 11 12 14 15 16 16 15 16 16 17 18 18 18 17 17 17 17 18 19 19 20 20 18 19 18
-8 -7 -7 -5 -3 -5 -5 -5 -4 -2 -1 -2 0 0 -1 -1 2 4 5 7 9 11 12 12 14 16 16 16 17 17 17 18 18 17 17 17 18 18 18 19 19 20 19 19 19
-8 -8 -7 -6 -6 -5 -5 -4 -4 -4 -4 -3 -3 -2 -3 -2 -2 -2 -1 2 4 11 10 12 13 16 16 16 16 17 17 17 18 18 18 18 18 18 18 19 19 19 19 19 18
-7 -7 -7 -7 -6 -6 -6 -5 -5 -5 -5 -4 -3 -4 -3 -3 -2 -1 -0 1 1 5 9 9 10 14 15 16 15 15 16 17 17 18 18 18 18 18 18 19 18 19 18 19 19

GFSSW_700_temp_036.txt.gz
Temp
11 11 11 11 11 11 12 12 12 12 12 12 12 12 12 13 12 13 15 14 13 13 14 14 14 13 13 12 12 12 12 13 14 13 14 13 13 12 13 13 12 12 12 12 11
11 11 11 11 11 11 11 11 12 12 12 12 12 12 12 13 13 13 14 14 14 14 15 15 14 14 13 13 12 12 13 14 15 14 14 13 14 14 13 13 12 12 11 11 11
11 11 11 11 11 11 11 11 11 12 12 12 12 12 12 12 13 13 14 14 14 15 14 15 13 13 12 13 13 13 15 14 15 14 14 14 14 14 14 13 13 14 12 12 12
11 11 12 12 12 12 12 12 12 12 12 12 12 12 12 12 13 13 13 14 14 14 14 14 14 14 13 13 13 13 14 15 15 15 14 13 15 14 14 14 14 14 13 13 12
11 12 12 12 12 13 13 13 12 12 12 12 12 12 12 13 14 12 13 13 14 13 14 14 15 15 14 14 13 14 15 15 15 16 15 14 14 15 14 14 13 13 13 13 12
12 12 12 12 13 13 13 13 13 13 13 13 12 12 12 14 13 13 13 13 13 13 14 14 16 16 14 14 14 15 15 15 15 15 16 15 15 14 14 13 13 13 13 12 12
12 12 12 12 13 13 13 13 13 13 13 13 14 13 14 16 12 13 14 14 13 13 14 14 15 14 15 14 14 14 14 15 16 16 15 15 15 15 15 14 14 14 13 13 12
12 12 12 12 13 13 13 13 13 13 14 14 14 15 17 15 13 14 14 13 15 14 14 14 14 14 14 15 14 14 15 15 17 16 15 16 15 15 15 14 14 14 13 13 13
12 12 12 12 12 13 13 13 13 13 13 14 14 15 17 16 15 14 14 14 14 14 13 13 13 13 13 14 15 15 15 16 16 17 16 16 15 15 14 14 14 13 14 13 13
12 12 13 12 12 13 12 12 12 13 13 14 15 15 16 15 14 14 14 13 13 13 12 12 12 13 13 13 14 15 16 16 16 16 17 16 16 15 14 14 14 14 14 14 14
13 13 13 12 12 12 12 11 12 12 14 14 14 15 15 15 15 14 14 13 12 11 12 13 12 12 13 14 15 15 16 16 16 17 16 16 16 15 15 14 14 14 14 14 15
11 12 12 12 12 12 11 12 11 11 14 14 15 15 16 14 14 14 12 12 11 11 11 12 12 13 13 13 14 15 16 16 15 17 16 16 16 15 15 16 16 16 14 14 14
10 10 11 11 11 11 10 10 10 10 10 16 16 17 17 14 16 16 14 13 13 11 11 11 12 13 12 13 13 14 15 16 15 16 17 16 15 15 15 15 15 15 15 14 14
10 10 11 11 10 10 8 10 9 9 9 14 16 17 17 16 15 15 14 13 12 13 12 12 12 12 13 13 14 14 16 15 15 16 16 16 16 16 15 16 15 15 15 15 14
9 10 10 10 10 8 8 8 7 7 6 14 15 15 16 16 16 15 14 12 13 13 12 12 13 13 12 14 14 15 16 15 16 16 16 17 16 17 16 16 16 15 16 16 15
8 8 9 8 7 8 7 7 6 6 5 14 14 16 16 16 15 15 14 13 13 13 12 14 13 13 13 14 14 15 15 15 16 16 14 16 16 16 17 17 17 16 16 16 15
6 6 5 7 5 6 5 5 5 5 10 13 13 13 14 16 14 15 14 13 12 12 12 13 13 13 14 14 14 15 15 15 13 13 13 16 15 16 18 18 18 17 17 16 17
3 3 3 3 4 3 4 3 3 7 10 11 11 12 13 14 15 15 14 13 13 13 13 12 13 13 14 14 15 15 15 14 11 11 12 17 15 17 18 19 18 17 17 17 17
-0 1 1 2 1 2 2 2 4 6 6 7 9 11 12 13 13 13 14 14 13 13 13 13 13 15 14 15 15 16 16 16 16 16 14 16 17 18 18 19 19 18 17 17 17
-3 -2 -0 0 -1 -1 -1 1 2 5 5 5 4 6 6 8 9 10 12 14 14 14 13 13 14 15 15 15 15 16 16 16 15 12 13 15 18 18 19 19 19 19 18 17 18
-5 -5 -1 -2 -2 -3 -3 -2 0 4 2 1 2 1 3 2 3 4 6 12 12 13 14 14 14 14 15 15 15 16 16 16 17 16 14 12 16 18 18 19 19 19 19 19 18
-6 -5 -2 -3 -2 -3 -2 -1 -1 -1 2 1 1 1 1 1 2 3 4 5 11 10 10 13 14 13 15 15 15 16 16 16 16 16 16 17 16 18 19 19 19 19 19 19 18
-6 -5 -5 -5 -4 -3 -3 -3 -3 -2 -1 -1 -1 -0 -0 0 1 4 6 7 7 7 8 11 12 13 13 14 15 14 15 17 17 17 17 14 16 17 18 19 19 18 18 18 18
-7 -6 -5 -6 -6 -5 -3 -4 -3 -4 -4 -3 -3 -2 -1 -0 1 2 3 4 5 6 8 8 10 12 14 14 15 15 16 16 16 16 16 17 16 17 18 18 18 19 19 18 18
-8 -7 -7 -7 -5 -7 -7 -6 -5 -4 -3 -3 -3 -3 -2 -2 -0 1 1 2 3 4 5 6 8 10 12 14 16 16 16 16 16 16 17 17 17 18 18 18 18 19 19 19 19
-8 -7 -7 -7 -6 -6 -7 -6 -6 -5 -5 -4 -5 -4 -2 -3 -3 -2 -1 0 -1 3 4 6 6 10 11 13 14 15 16 16 16 17 17 17 17 18 18 18 18 18 18 19 19
-7 -7 -7 -7 -6 -6 -6 -6 -7 -6 -5 -5 -6 -5 -3 -3 -3 -2 -1 -0 -1 -1 3 3 4 7 10 14 14 14 16 16 17 16 17 17 17 18 18 18 18 18 18 18 19

GFSSW_700_temp_042.txt.gz
Temp
10 10 11 11 11 11 11 11 11 11 11 11 11 11 11 11 11 12 12 11 11 12 13 13 13 13 14 14 13 12 11 11 13 14 14 13 12 12 12 13 12 12 12 12 12
10 11 11 11 11 11 11 12 12 12 12 12 11 11 12 12 12 12 12 12 13 13 14 14 14 14 14 14 13 13 13 13 13 14 14 13 12 13 13 13 12 12 12 11 12
10 11 11 11 11 11 11 11 12 12 12 12 12 12 12 12 12 12 12 12 13 13 13 12 12 13 14 14 13 13 13 13 13 13 13 13 13 12 13 13 13 12 12 12 12
11 11 11 11 11 12 12 12 12 12 12 12 12 12 12 12 12 12 12 12 12 12 12 12 12 13 14 14 14 13 13 13 13 13 13 14 13 14 13 13 12 13 12 12 12
11 11 11 12 12 12 12 12 12 12 12 12 12 13 13 13 13 11 11 11 11 12 12 13 14 14 14 15 14 14 14 13 13 13 14 14 14 14 13 13 13 13 13 13 12
11 12 12 12 12 12 12 12 12 13 13 13 13 13 14 14 12 11 12 11 11 12 12 12 14 14 14 14 14 14 14 14 13 12 12 13 13 13 13 13 13 13 13 13 12
12 12 12 12 12 13 12 12 13 13 13 13 13 13 14 13 12 12 12 12 11 12 12 13 13 13 13 14 14 14 14 14 14 14 13 13 13 14 13 13 13 13 12 12 12
11 11 12 12 13 13 13 13 13 13 13 13 13 13 15 14 13 14 13 12 12 11 10 11 11 12 13 12 13 13 14 14 14 14 14 13 13 14 13 13 13 13 13 12 13
10 10 10 11 12 12 13 13 13 13 14 13 13 13 14 14 14 12 12 12 12 11 10 9 9 11 11 11 11 12 13 14 15 15 15 14 14 14 14 14 13 13 13 13 13
10 11 10 10 11 11 12 12 13 13 14 14 14 14 14 14 14 14 13 11 12 11 10 10 9 10 10 11 10 12 12 14 14 15 15 15 15 15 14 14 14 14 13 13 14
10 10 11 10 11 11 11 11 12 13 13 13 14 14 14 14 13 14 13 12 11 10 10 10 9 11 11 12 12 12 13 14 15 15 15 15 15 15 15 15 14 14 13 13 14
10 10 11 10 10 10 10 11 11 11 14 13 14 15 13 13 13 13 14 12 11 11 10 10 10 12 12 12 12 12 13 14 15 15 15 15 15 15 15 15 15 15 14 14 14
9 9 10 10 9 9 9 9 9 9 10 16 15 15 15 13 14 13 13 13 12 12 11 11 12 12 12 12 12 12 12 13 15 14 15 15 15 14 15 15 14 15 14 14 14
7 8 9 10 9 8 8 8 8 7 9 13 13 13 14 14 14 13 12 13 12 12 11 10 11 12 12 12 12 12 12 12 13 13 14 15 13 15 15 15 15 15 15 15 14
4 5 6 7 9 8 7 7 7 6 5 11 11 11 12 13 13 14 11 11 12 12 11 11 12 11 11 12 12 12 12 13 13 13 13 14 13 15 15 15 15 16 16 15 15
2 3 3 5 5 6 6 5 5 5 3 10 10 10 11 12 12 12 12 11 11 11 12 12 11 11 13 12 13 12 12 12 12 12 11 14 14 14 15 16 16 16 16 16 16
1 1 2 2 3 4 4 3 3 4 8 8 8 9 9 10 10 11 12 10 10 10 10 11 11 12 12 12 12 11 12 11 10 8 10 14 13 14 16 16 17 16 17 17 17
0 0 0 1 1 2 2 1 2 4 5 6 7 7 8 10 10 10 10 10 10 10 11 10 10 11 12 12 12 11 11 11 7 6 12 13 13 15 16 16 17 16 16 16 16
-1 -1 -1 -1 -1 0 -0 0 2 1 1 2 5 7 7 8 9 10 10 9 9 10 12 10 11 13 12 12 12 11 10 12 12 10 10 14 15 15 16 17 17 17 17 17 17
-2 -2 -2 -2 -2 -2 -2 -1 -0 -1 -1 0 3 3 4 6 7 8 9 7 9 10 10 11 11 12 13 12 12 12 12 11 11 9 8 11 13 16 16 17 17 17 17 18 18
-3 -4 -4 -4 -4 -4 -5 -4 -3 -2 -2 -1 -1 -1 -0 2 3 5 4 6 7 9 9 10 11 12 12 12 12 11 12 12 12 12 8 7 13 15 16 17 18 18 18 19 18
-4 -5 -5 -5 -5 -6 -7 -6 -5 -4 -4 -3 -2 -2 -2 -1 0 2 3 2 4 5 7 8 9 10 12 12 13 13 12 12 12 11 12 12 13 17 17 17 18 18 19 19 18
-5 -5 -6 -5 -6 -6 -6 -6 -5 -5 -4 -4 -3 -3 -3 -2 -0 0 1 1 2 3 4 5 6 8 10 12 12 11 12 12 13 13 13 11 13 15 17 16 17 18 18 19 19
-6 -6 -6 -6 -7 -7 -7 -6 -6 -5 -5 -5 -4 -4 -3 -3 -2 -1 0 -0 1 2 2 2 3 4 6 8 9 10 12 12 13 12 12 13 13 14 15 16 17 17 18 18 18
-7 -7 -7 -7 -6 -7 -8 -7 -7 -6 -6 -5 -5 -4 -5 -4 -4 -2 -1 -0 0 0 1 1 2 2 3 5 6 7 10 11 12 12 13 13 13 14 14 15 16 18 18 18 18
-7 -8 -8 -7 -8 -8 -7 -7 -7 -7 -6 -6 -6 -5 -6 -5 -5 -4 -4 -2 -1 -0 0 1 1 2 2 4 6 7 8 9 10 10 12 13 13 14 15 15 17 17 17 18 18
-8 -8 -9 -8 -8 -9 -8 -8 -8 -7 -6 -6 -6 -7 -7 -6 -5 -4 -4 -3 -2 -1 -1 -0 1 1 2 3 5 7 9 10 10 10 11 12 13 14 15 15 16 16 17 17 17

GFSSW_700_temp_045.txt.gz
Temp
10 11 11 11 11 11 11 11 11 11 11 11 11 11 12 11 11 12 12 11 11 12 12 13 13 13 13 14 12 11 11 12 13 13 13 13 13 12 12 12 12 11 12 11 12
10 11 11 11 11 11 12 12 12 12 12 12 12 11 12 12 12 12 12 12 12 13 13 14 14 14 14 14 13 13 12 13 13 13 13 13 13 12 12 12 12 12 12 11 12
11 11 11 11 11 11 12 12 12 12 12 12 12 12 12 12 12 12 12 12 13 12 12 12 13 13 14 14 14 13 13 13 13 13 13 13 13 13 12 12 12 12 12 12 12
11 11 11 11 11 11 12 12 12 12 12 12 13 13 13 12 12 12 12 12 12 12 12 12 12 12 13 14 14 13 13 13 13 13 13 13 13 13 13 12 12 11 11 11 12
11 11 11 12 12 12 12 12 12 12 12 12 13 13 13 13 13 11 11 12 12 12 12 12 13 13 14 14 14 14 13 13 13 13 13 14 14 13 13 12 12 13 12 11 12
10 11 11 12 12 12 13 13 13 12 12 13 13 13 14 13 13 12 12 11 12 12 12 11 13 13 13 14 14 14 13 13 13 13 14 14 13 13 13 13 12 13 13 12 11
10 10 10 11 11 12 12 13 13 13 13 13 13 13 14 12 13 13 12 12 11 11 12 12 12 12 12 14 14 14 14 13 14 13 14 13 13 13 13 13 13 12 13 13 11
10 10 10 10 11 11 12 12 13 13 13 13 13 13 14 13 14 14 13 12 12 11 11 11 11 11 11 12 13 13 13 13 14 14 14 13 14 14 13 13 13 12 12 13 13
10 10 10 10 10 11 11 12 12 13 13 13 13 13 14 14 14 13 12 12 12 11 11 10 10 10 11 11 11 12 13 14 14 14 14 14 14 15 14 14 13 13 13 13 13
10 10 10 10 10 11 11 11 12 12 13 13 13 13 14 13 14 13 12 11 12 11 10 10 9 10 10 10 11 11 12 13 14 14 14 15 15 15 14 14 14 13 13 13 14
9 10 10 10 10 11 10 11 11 12 13 13 13 13 13 14 13 13 12 11 10 11 11 10 9 11 11 10 10 11 12 13 14 14 14 15 15 15 15 14 14 14 13 13 14
8 9 9 9 9 10 10 10 10 10 12 12 13 13 12 12 13 13 12 11 11 10 10 10 11 12 12 11 11 11 11 12 13 14 14 15 15 15 15 16 15 15 14 14 13
7 7 8 8 8 7 8 8 8 8 9 14 14 14 12 11 12 13 13 12 11 11 11 12 11 11 11 12 11 11 11 12 13 13 14 14 15 15 16 15 15 14 14 14 13
4 5 5 6 6 6 6 6 7 6 8 12 13 13 13 11 11 12 12 11 11 11 11 9 9 10 11 11 11 11 11 11 11 12 13 14 16 15 15 16 16 15 15 14 14
3 3 3 3 4 4 4 4 5 5 8 10 9 10 10 11 11 11 11 10 10 10 10 10 10 10 11 12 11 10 11 12 12 12 12 13 14 15 15 15 16 16 16 15 15
2 2 2 2 2 2 3 3 2 4 6 8 8 8 9 9 9 10 11 9 10 9 10 10 11 10 12 12 12 10 10 11 11 12 13 13 13 15 14 16 16 16 16 16 15
1 0 1 1 1 1 2 2 1 2 7 6 6 7 8 9 8 9 10 9 9 9 9 9 10 11 10 10 9 10 11 12 12 12 14 14 13 14 15 15 16 17 17 17 16
-0 -1 -1 -1 -0 0 1 0 0 2 2 3 4 5 7 8 8 9 9 8 9 9 10 10 10 10 11 11 10 10 11 14 13 15 15 13 14 14 15 16 16 16 17 17 17
-1 -1 -2 -2 -2 -1 -0 -1 -0 -2 -1 0 3 4 5 6 7 7 8 8 8 9 11 10 11 11 11 11 11 10 11 12 13 12 13 14 14 14 15 15 16 17 17 17 17
-2 -2 -2 -2 -3 -3 -2 -2 -2 -3 -3 -2 -1 0 1 3 6 7 6 6 7 8 9 10 10 11 11 11 11 11 11 10 11 13 13 15 13 15 16 16 16 17 17 17 18
-3 -3 -4 -4 -4 -4 -5 -5 -4 -3 -4 -3 -3 -2 -2 -1 2 3 3 4 5 7 9 9 10 11 11 10 11 10 10 11 12 12 15 15 16 15 15 16 17 18 18 18 18
-4 -5 -5 -5 -5 -6 -6 -6 -6 -5 -5 -4 -4 -3 -2 -2 -0 1 2 2 3 5 6 8 9 10 10 11 11 11 11 11 12 11 11 14 15 16 16 15 16 17 18 18 18
-5 -5 -6 -6 -5 -6 -6 -6 -6 -6 -5 -5 -4 -3 -3 -2 -1 -0 -0 1 2 3 5 6 7 9 10 10 11 11 11 11 12 13 12 13 14 15 17 17 16 17 18 18 18
-6 -6 -6 -6 -7 -7 -7 -6 -6 -7 -6 -6 -5 -4 -4 -3 -2 -1 -1 -1 0 2 2 3 4 7 11 11 10 10 10 11 11 12 13 12 14 14 15 16 16 16 17 17 17
-7 -7 -7 -7 -7 -7 -9 -7 -7 -8 -7 -6 -5 -5 -5 -4 -4 -2 -2 -1 -0 0 1 2 2 3 4 6 6 7 9 9 9 11 12 13 13 12 14 16 16 16 17 17 17
-7 -8 -8 -8 -8 -9 -8 -8 -8 -8 -8 -7 -7 -6 -6 -6 -5 -4 -4 -3 -1 -1 0 1 1 2 3 4 4 5 6 7 8 8 9 11 12 12 13 13 14 16 16 17 17
-7 -8 -8 -9 -9 -9 -8 -8 -8 -9 -8 -7 -7 -7 -7 -7 -5 -5 -4 -4 -2 -2 -1 -1 0 1 3 3 4 6 7 7 8 9 9 10 11 12 13 13 13 14 15 16 17

GFSSW_700_temp_048.txt.gz
Temp
10 11 11 11 11 11 11 12 12 12 12 12 12 12 12 12 12 12 12 10 11 12 12 13 13 13 14 13 12 11 11 14 15 14 14 12 12 11 12 12 11 11 12 12 12
10 11 11 11 11 11 12 12 12 12 12 12 12 12 12 12 12 13 12 11 12 12 13 13 14 14 14 14 13 12 13 15 13 13 14 13 13 13 11 12 12 12 12 11 12
11 11 11 11 11 11 12 12 12 12 12 13 13 12 12 12 12 13 12 12 12 12 12 12 12 13 13 13 13 13 13 13 13 13 13 13 13 12 12 11 11 12 12 12 12
11 11 11 11 11 12 12 12 12 12 12 12 13 12 12 12 11 12 13 13 13 12 12 12 12 13 11 13 14 13 13 12 13 13 13 13 13 12 12 12 11 12 11 12 11
10 10 11 11 11 12 12 12 12 12 12 13 13 13 13 13 13 12 12 12 12 12 12 12 13 11 11 11 12 14 12 13 13 13 13 13 13 13 12 12 12 13 12 11 11
10 10 10 10 11 11 12 12 12 12 12 13 13 12 13 13 13 12 12 12 12 12 12 12 12 10 11 11 12 13 13 13 13 13 13 13 13 12 12 13 12 13 13 12 11
10 10 10 10 10 11 11 12 12 12 13 13 13 13 13 13 13 13 13 12 11 11 12 12 12 10 11 11 11 12 12 13 13 14 14 14 13 13 13 13 13 13 13 12 11
10 10 10 10 11 11 11 11 12 12 12 13 13 13 14 13 13 13 13 12 11 11 9 9 11 9 10 11 12 12 13 14 15 14 14 14 16 14 13 13 13 13 13 13 12
10 10 10 10 10 11 11 11 12 12 12 12 12 12 13 14 14 13 13 12 12 11 10 8 9 9 10 10 13 13 15 15 15 15 15 14 16 15 14 14 13 13 13 13 13
9 9 9 9 10 10 10 11 11 12 12 12 12 11 13 13 14 13 12 12 11 11 10 10 8 9 10 11 14 15 15 16 16 15 15 15 15 15 14 13 12 14 13 13 13
7 8 8 8 9 10 10 10 11 11 12 12 12 11 12 13 12 13 12 12 11 11 10 10 9 10 11 12 13 15 15 16 16 16 15 15 16 16 15 13 13 12 14 13 13
6 6 6 6 6 7 8 8 9 9 11 12 12 12 11 12 12 12 12 11 11 10 9 9 10 11 11 12 12 13 14 15 16 15 14 16 16 16 16 14 13 12 13 14 13
4 4 5 5 5 5 5 6 7 7 8 13 13 13 13 11 12 13 12 11 11 9 10 11 12 11 11 11 11 12 14 15 15 15 15 15 16 16 15 14 13 13 13 11 13
3 3 3 3 4 4 4 4 4 5 6 8 12 12 13 11 11 11 12 11 9 10 10 11 12 11 11 11 12 13 13 13 14 14 16 16 18 17 16 15 14 14 13 14 14
2 2 2 2 2 2 2 3 3 3 9 8 8 9 11 10 10 10 11 8 10 10 10 11 11 11 11 11 12 13 14 13 13 14 15 16 16 17 17 16 15 14 14 14 15
2 2 1 1 1 1 2 2 2 3 8 8 6 7 7 8 7 8 9 8 9 10 10 11 11 11 12 12 12 12 13 13 13 14 16 16 16 17 17 16 16 15 14 15 14
1 1 1 1 0 1 1 0 1 5 7 5 5 5 6 8 7 7 7 7 9 10 11 11 11 11 11 11 11 11 12 15 15 16 17 17 16 17 17 17 16 16 16 15 16
0 0 -0 -0 -0 -0 -0 -1 2 4 3 1 1 3 5 6 7 8 8 8 9 10 12 11 12 11 12 12 12 12 13 16 16 18 19 16 17 17 17 17 16 16 17 15 15
-0 -0 -1 -2 -1 -1 -1 -0 2 -1 -2 -1 1 4 7 5 6 6 8 9 9 10 12 13 13 13 12 11 13 12 12 15 17 17 17 19 17 17 16 16 16 16 16 16 15
-1 -1 -2 -2 -2 -2 -3 -1 -2 -4 -4 -2 0 1 3 4 4 7 9 7 9 10 11 12 14 13 12 11 12 14 13 14 15 17 17 18 18 18 17 16 16 16 17 17 16
-2 -3 -3 -3 -3 -4 -3 -3 -4 -5 -5 -4 -1 -1 1 2 3 6 6 4 7 8 8 10 12 14 13 12 13 12 13 13 15 16 18 18 19 18 17 16 16 17 17 17 17
-3 -4 -3 -3 -4 -5 -4 -6 -5 -5 -5 -5 -3 -2 -2 0 1 3 4 2 2 3 6 8 10 13 13 13 13 13 13 13 15 15 15 17 19 17 16 16 16 17 17 17 17
-3 -4 -4 -4 -5 -6 -6 -6 -6 -6 -6 -6 -5 -3 -3 -1 0 1 1 -0 1 2 4 5 9 12 13 13 13 13 13 14 14 15 16 16 17 16 16 15 15 16 16 16 16
-4 -6 -6 -7 -7 -7 -8 -6 -6 -6 -6 -6 -6 -5 -5 -2 -1 -0 0 -0 1 0 2 5 8 11 14 14 13 12 14 13 14 14 16 16 16 16 16 16 15 16 15 15 16
-6 -7 -6 -7 -7 -8 -8 -8 -7 -6 -7 -6 -6 -6 -6 -4 -1 -1 -1 -1 -0 1 1 2 7 6 9 8 8 12 13 13 14 14 15 16 16 15 15 16 15 15 15 16 16
-7 -7 -7 -8 -7 -8 -7 -7 -7 -7 -7 -7 -7 -6 -7 -6 -5 -4 -4 -2 -1 -1 0 1 5 4 6 7 7 8 9 10 12 14 14 14 15 15 15 14 15 14 14 15 15
-7 -7 -7 -7 -8 -8 -7 -8 -8 -8 -7 -7 -7 -7 -6 -6 -6 -6 -5 -4 -3 -3 -1 -0 3 4 7 8 8 8 9 10 10 11 12 12 13 13 13 13 13 16 16 17 17